Location: Albert Place
(40.7505°N, 111.9230°W)
Time: 05:52:51
(UTC+00:00)

Okean 1-7 Rocket - Pass Details

Date: 13 December 2025
Orbit: 610 x 643 km, 82.5° (Epoch: 20 January)

Event Time Altitude Azimuth Distance (km) Brightness Sun altitude
Rises 13:44:53 0° 190° (S) 2,929 7.2 -10.8°
Reaches altitude 10° 13:47:07 10° 192° (SSW) 2,021 6.3 -10.4°
Maximum altitude 13:51:36 77° 278° (W) 656 3.5 -9.6°
Drops below altitude 10° 13:56:05 10° 5° (N) 2,017 6.0 -8.9°
Sets 13:58:20 0° 7° (N) 2,924 6.8 -8.5°
